Location: *
(48.8780°N, 19.2358°E)
Time: 20:51:36
(UTC+00:00)

STARLINK-40 - Pass Details

Date: 18 October 2019
Orbit: 548 x 551 km, 53.0° (Epoch: 12 November)

Event Time Altitude Azimuth Distance (km) Brightness Sun altitude
Rises 16:52:35 0° 260° (W) 2,713 9.2 -11.3°
Reaches altitude 10° 16:54:50 10° 264° (W) 1,822 7.8 -11.6°
Maximum altitude 16:58:56 59° 345° (NNW) 636 4.0 -12.3°
Enters shadow 17:02:01 17° 62° (ENE) 1,435 5.2 -12.8°
